Data supplied by UK-AIR on 28/4/2018
All Data GMT hour ending 
Status: R =Ratified P=Provisional,P*=As supplied
,,Dumfries,,,,,,,,,,,,,,,,,,,,,,,
Date,time,"Nitric oxide",status,unit,"Nitrogen dioxide",status,unit,"Nitrogen oxides as nitrogen dioxide",status,unit
 
01-01-2017,01:00,14.04668,R,ugm-3,18.67595,R,ugm-3,40.21388,R,ugm-3
01-01-2017,02:00,8.57332,R,ugm-3,14.95212,R,ugm-3,28.09769,R,ugm-3
01-01-2017,03:00,15.00330,R,ugm-3,13.95709,R,ugm-3,36.96184,R,ugm-3
01-01-2017,04:00,11.18891,R,ugm-3,20.80924,R,ugm-3,37.96532,R,ugm-3
01-01-2017,05:00,4.14135,R,ugm-3,7.08562,R,ugm-3,13.43560,R,ugm-3
01-01-2017,06:00,1.19881,R,ugm-3,3.62529,R,ugm-3,5.46344,R,ugm-3
01-01-2017,07:00,0.72655,R,ugm-3,4.01491,R,ugm-3,5.12894,R,ugm-3
01-01-2017,08:00,1.16248,R,ugm-3,5.29772,R,ugm-3,7.08017,R,ugm-3
01-01-2017,09:00,1.08983,R,ugm-3,4.34989,R,ugm-3,6.02093,R,ugm-3
01-01-2017,10:00,2.03435,R,ugm-3,5.52187,R,ugm-3,8.64115,R,ugm-3
01-01-2017,11:00,6.03038,R,ugm-3,13.10904,R,ugm-3,22.35550,R,ugm-3
01-01-2017,12:00,7.84676,R,ugm-3,14.39367,R,ugm-3,26.42520,R,ugm-3
01-01-2017,13:00,7.88309,R,ugm-3,13.78047,R,ugm-3,25.86771,R,ugm-3
01-01-2017,14:00,10.86196,R,ugm-3,17.18510,R,ugm-3,33.83987,R,ugm-3
01-01-2017,15:00,7.08388,R,ugm-3,11.32645,R,ugm-3,22.18825,R,ugm-3
01-01-2017,16:00,8.50066,R,ugm-3,12.22030,R,ugm-3,25.25447,R,ugm-3
01-01-2017,17:00,13.73184,R,ugm-3,21.09134,R,ugm-3,42.14653,R,ugm-3
01-01-2017,18:00,10.97094,R,ugm-3,15.28977,R,ugm-3,32.11164,R,ugm-3
01-01-2017,19:00,13.58653,R,ugm-3,18.69392,R,ugm-3,39.52631,R,ugm-3
01-01-2017,20:00,24.52114,R,ugm-3,44.29728,R,ugm-3,81.89583,R,ugm-3
01-01-2017,21:00,13.18692,R,ugm-3,25.60632,R,ugm-3,45.82599,R,ugm-3
01-01-2017,22:00,5.92140,R,ugm-3,12.38416,R,ugm-3,21.46351,R,ugm-3
01-01-2017,23:00,4.35931,R,ugm-3,7.14166,R,ugm-3,13.82585,R,ugm-3
01-01-2017,24:00,7.41083,R,ugm-3,11.32688,R,ugm-3,22.69000,R,ugm-3
02-01-2017,01:00,10.22017,R,ugm-3,14.73129,R,ugm-3,30.40199,R,ugm-3
02-01-2017,02:00,3.87495,R,ugm-3,11.37797,R,ugm-3,17.31947,R,ugm-3
02-01-2017,03:00,11.84280,R,ugm-3,20.64286,R,ugm-3,38.80157,R,ugm-3
02-01-2017,04:00,4.50462,R,ugm-3,9.20458,R,ugm-3,16.11157,R,ugm-3
02-01-2017,05:00,2.03435,R,ugm-3,7.19435,R,ugm-3,10.31363,R,ugm-3
02-01-2017,06:00,3.05152,R,ugm-3,9.09116,R,ugm-3,13.77010,R,ugm-3
02-01-2017,07:00,4.46830,R,ugm-3,12.38224,R,ugm-3,19.23353,R,ugm-3
02-01-2017,08:00,9.44518,R,ugm-3,16.90449,R,ugm-3,31.38690,R,ugm-3
02-01-2017,09:00,7.12021,R,ugm-3,21.30563,R,ugm-3,32.22314,R,ugm-3
02-01-2017,10:00,24.95707,R,ugm-3,39.78215,R,ugm-3,78.04913,R,ugm-3
02-01-2017,11:00,34.76553,R,ugm-3,37.06334,R,ugm-3,90.36974,R,ugm-3
02-01-2017,12:00,48.02510,R,ugm-3,47.67317,R,ugm-3,121.31064,R,ugm-3
02-01-2017,13:00,46.68098,R,ugm-3,46.94666,R,ugm-3,118.52317,R,ugm-3
02-01-2017,14:00,35.89168,R,ugm-3,36.84183,R,ugm-3,91.87497,R,ugm-3
02-01-2017,15:00,53.51057,R,ugm-3,56.37730,R,ugm-3,138.42570,R,ugm-3
02-01-2017,16:00,20.74307,R,ugm-3,28.12499,R,ugm-3,59.93058,R,ugm-3
02-01-2017,17:00,33.67570,R,ugm-3,47.48704,R,ugm-3,99.12239,R,ugm-3
02-01-2017,18:00,56.16249,R,ugm-3,55.82329,R,ugm-3,141.93791,R,ugm-3
02-01-2017,19:00,13.07794,R,ugm-3,23.54345,R,ugm-3,43.59601,R,ugm-3
02-01-2017,20:00,13.98613,R,ugm-3,29.11958,R,ugm-3,50.56468,R,ugm-3
02-01-2017,21:00,29.06209,R,ugm-3,45.41824,R,ugm-3,89.97949,R,ugm-3
02-01-2017,22:00,7.70145,R,ugm-3,25.98935,R,ugm-3,37.79808,R,ugm-3
02-01-2017,23:00,5.08587,R,ugm-3,15.72802,R,ugm-3,23.52624,R,ugm-3
02-01-2017,24:00,8.17371,R,ugm-3,15.34184,R,ugm-3,27.87469,R,ugm-3
03-01-2017,01:00,3.34214,R,ugm-3,9.07296,R,ugm-3,14.19751,R,ugm-3
03-01-2017,02:00,1.50154,R,ugm-3,6.24591,R,ugm-3,8.54824,R,ugm-3
03-01-2017,03:00,0.43593,R,ugm-3,4.73927,R,ugm-3,5.40769,R,ugm-3
03-01-2017,04:00,0.65390,R,ugm-3,7.24828,R,ugm-3,8.25091,R,ugm-3
03-01-2017,05:00,0.65390,R,ugm-3,5.18555,R,ugm-3,6.18818,R,ugm-3
03-01-2017,06:00,2.72457,R,ugm-3,4.90953,R,ugm-3,9.08715,R,ugm-3
03-01-2017,07:00,36.18230,R,ugm-3,35.11398,R,ugm-3,90.59273,R,ugm-3
03-01-2017,08:00,28.69881,R,ugm-3,33.09715,R,ugm-3,77.10139,R,ugm-3
03-01-2017,09:00,34.32959,R,ugm-3,44.42169,R,ugm-3,97.05966,R,ugm-3
03-01-2017,10:00,46.31771,R,ugm-3,40.75801,R,ugm-3,111.77750,R,ugm-3
03-01-2017,11:00,38.76156,R,ugm-3,34.11388,R,ugm-3,93.54745,R,ugm-3
03-01-2017,12:00,42.57596,R,ugm-3,22.41154,R,ugm-3,87.69377,R,ugm-3
03-01-2017,13:00,32.54954,R,ugm-3,35.27645,R,ugm-3,85.18505,R,ugm-3
03-01-2017,14:00,37.00573,R,ugm-3,20.34148,R,ugm-3,77.08280,R,ugm-3
03-01-2017,15:00,31.96830,R,ugm-3,23.51256,R,ugm-3,72.52994,R,ugm-3
03-01-2017,16:00,36.36394,R,ugm-3,26.47306,R,ugm-3,82.23033,R,ugm-3
03-01-2017,17:00,55.69023,R,ugm-3,32.74243,R,ugm-3,118.13293,R,ugm-3
03-01-2017,18:00,50.53171,R,ugm-3,38.53358,R,ugm-3,116.01445,R,ugm-3
03-01-2017,19:00,22.91062,R,ugm-3,18.16728,R,ugm-3,53.29640,R,ugm-3
03-01-2017,20:00,,,,,,,,,
03-01-2017,21:00,6.28468,R,ugm-3,9.09542,R,ugm-3,18.73179,R,ugm-3
03-01-2017,22:00,20.19815,R,ugm-3,15.07892,R,ugm-3,46.04898,R,ugm-3
03-01-2017,23:00,5.99406,R,ugm-3,8.76054,R,ugm-3,17.95130,R,ugm-3
03-01-2017,24:00,6.82959,R,ugm-3,5.30518,R,ugm-3,15.77707,R,ugm-3
04-01-2017,01:00,0.87186,R,ugm-3,2.67712,R,ugm-3,4.01396,R,ugm-3
04-01-2017,02:00,0.48437,R,ugm-3,1.33862,R,ugm-3,2.08131,R,ugm-3
04-01-2017,03:00,0.14531,R,ugm-3,1.05943,R,ugm-3,1.28224,R,ugm-3
04-01-2017,04:00,0.43593,R,ugm-3,1.67306,R,ugm-3,2.34147,R,ugm-3
04-01-2017,05:00,0.54491,R,ugm-3,2.28644,R,ugm-3,3.12197,R,ugm-3
04-01-2017,06:00,1.34412,R,ugm-3,5.13071,R,ugm-3,7.19167,R,ugm-3
04-01-2017,07:00,24.04888,R,ugm-3,20.54742,R,ugm-3,57.42186,R,ugm-3
04-01-2017,08:00,109.01917,R,ugm-3,59.46082,R,ugm-3,226.62121,R,ugm-3
04-01-2017,09:00,153.44784,R,ugm-3,77.30335,R,ugm-3,312.58675,R,ugm-3
04-01-2017,10:00,163.36527,R,ugm-3,80.94011,R,ugm-3,331.43003,R,ugm-3
04-01-2017,11:00,205.97756,R,ugm-3,88.07636,R,ugm-3,403.90422,R,ugm-3
04-01-2017,12:00,153.66580,R,ugm-3,92.91346,R,ugm-3,328.53107,R,ugm-3
04-01-2017,13:00,158.64268,R,ugm-3,80.82239,R,ugm-3,324.07112,R,ugm-3
04-01-2017,14:00,146.69090,R,ugm-3,80.41642,R,ugm-3,305.33933,R,ugm-3
04-01-2017,15:00,159.11494,R,ugm-3,87.79169,R,ugm-3,331.76453,R,ugm-3
04-01-2017,16:00,194.97030,R,ugm-3,85.05141,R,ugm-3,384.00170,R,ugm-3
04-01-2017,17:00,207.03106,R,ugm-3,101.51335,R,ugm-3,418.95655,R,ugm-3
04-01-2017,18:00,281.57532,R,ugm-3,96.25952,R,ugm-3,528.00233,R,ugm-3
04-01-2017,19:00,97.68495,R,ugm-3,70.70728,R,ugm-3,220.48878,R,ugm-3
04-01-2017,20:00,95.79591,R,ugm-3,70.81629,R,ugm-3,217.70131,R,ugm-3
04-01-2017,21:00,44.35602,R,ugm-3,48.28159,R,ugm-3,116.29320,R,ugm-3
04-01-2017,22:00,39.16117,R,ugm-3,41.52908,R,ugm-3,101.57536,R,ugm-3
04-01-2017,23:00,38.10767,R,ugm-3,32.99804,R,ugm-3,91.42898,R,ugm-3
04-01-2017,24:00,20.67041,R,ugm-3,21.82521,R,ugm-3,53.51940,R,ugm-3
05-01-2017,01:00,3.72964,R,ugm-3,23.19665,R,ugm-3,28.91534,R,ugm-3
05-01-2017,02:00,5.27961,R,ugm-3,18.21841,R,ugm-3,26.31371,R,ugm-3
05-01-2017,03:00,1.67107,R,ugm-3,15.38903,R,ugm-3,17.95130,R,ugm-3
05-01-2017,04:00,3.95971,R,ugm-3,8.64637,R,ugm-3,14.71784,R,ugm-3
05-01-2017,05:00,2.10700,R,ugm-3,18.73456,R,ugm-3,21.96525,R,ugm-3
05-01-2017,06:00,7.62880,R,ugm-3,15.73136,R,ugm-3,27.42869,R,ugm-3
05-01-2017,07:00,51.94849,R,ugm-3,34.85598,R,ugm-3,114.50922,R,ugm-3
05-01-2017,08:00,112.86989,R,ugm-3,44.58081,R,ugm-3,217.64556,R,ugm-3
05-01-2017,09:00,232.09712,R,ugm-3,64.19426,R,ugm-3,420.07154,R,ugm-3
05-01-2017,10:00,221.52578,R,ugm-3,69.58803,R,ugm-3,409.25616,R,ugm-3
05-01-2017,11:00,208.15722,R,ugm-3,78.54609,R,ugm-3,397.71604,R,ugm-3
05-01-2017,12:00,,,,,,,,,
05-01-2017,13:00,155.38531,R,ugm-3,52.46026,R,ugm-3,290.71441,R,ugm-3
05-01-2017,14:00,142.47690,R,ugm-3,65.80454,R,ugm-3,284.26606,R,ugm-3
05-01-2017,15:00,121.22524,R,ugm-3,59.25389,R,ugm-3,245.13000,R,ugm-3
05-01-2017,16:00,324.11496,R,ugm-3,88.17610,R,ugm-3,585.14544,R,ugm-3
05-01-2017,17:00,222.97889,R,ugm-3,82.46805,R,ugm-3,424.36424,R,ugm-3
05-01-2017,18:00,246.91878,R,ugm-3,91.92121,R,ugm-3,470.52473,R,ugm-3
05-01-2017,19:00,160.56805,R,ugm-3,55.62621,R,ugm-3,301.82712,R,ugm-3
05-01-2017,20:00,16.78336,R,ugm-3,37.65292,R,ugm-3,63.38704,R,ugm-3
05-01-2017,21:00,15.07596,R,ugm-3,35.08620,R,ugm-3,58.20235,R,ugm-3
05-01-2017,22:00,14.89432,R,ugm-3,35.42046,R,ugm-3,58.25810,R,ugm-3
05-01-2017,23:00,8.60964,R,ugm-3,28.22052,R,ugm-3,41.42179,R,ugm-3
05-01-2017,24:00,3.85073,R,ugm-3,18.29086,R,ugm-3,24.19523,R,ugm-3
06-01-2017,01:00,1.01368,R,ugm-3,16.83274,R,ugm-3,18.38703,R,ugm-3
06-01-2017,02:00,0.67579,R,ugm-3,14.83004,R,ugm-3,15.86623,R,ugm-3
06-01-2017,03:00,0.79646,R,ugm-3,12.34662,R,ugm-3,13.56785,R,ugm-3
06-01-2017,04:00,0.76026,R,ugm-3,10.78956,R,ugm-3,11.95528,R,ugm-3
06-01-2017,05:00,0.61545,R,ugm-3,9.89948,R,ugm-3,10.84316,R,ugm-3
06-01-2017,06:00,1.44812,R,ugm-3,8.62275,R,ugm-3,10.84316,R,ugm-3
06-01-2017,07:00,3.58409,R,ugm-3,14.52262,R,ugm-3,20.01814,R,ugm-3
06-01-2017,08:00,10.17301,R,ugm-3,17.70956,R,ugm-3,33.30796,R,ugm-3
06-01-2017,09:00,15.67585,R,ugm-3,24.11878,R,ugm-3,48.15474,R,ugm-3
06-01-2017,10:00,18.24625,R,ugm-3,24.40360,R,ugm-3,52.38079,R,ugm-3
06-01-2017,11:00,23.71289,R,ugm-3,27.30954,R,ugm-3,63.66880,R,ugm-3
06-01-2017,12:00,17.41359,R,ugm-3,25.29109,R,ugm-3,51.99155,R,ugm-3
06-01-2017,13:00,16.68953,R,ugm-3,29.68205,R,ugm-3,55.27230,R,ugm-3
06-01-2017,14:00,60.92945,R,ugm-3,52.37491,R,ugm-3,145.79877,R,ugm-3
06-01-2017,15:00,82.28915,R,ugm-3,65.49873,R,ugm-3,191.67367,R,ugm-3
06-01-2017,16:00,73.49185,R,ugm-3,65.80913,R,ugm-3,178.49506,R,ugm-3
06-01-2017,17:00,105.06077,R,ugm-3,49.21073,R,ugm-3,210.30166,R,ugm-3
06-01-2017,18:00,149.59031,R,ugm-3,56.11227,R,ugm-3,285.48088,R,ugm-3
06-01-2017,19:00,107.01572,R,ugm-3,45.49030,R,ugm-3,209.57878,R,ugm-3
06-01-2017,20:00,80.73243,R,ugm-3,49.53571,R,ugm-3,173.32371,R,ugm-3
06-01-2017,21:00,58.14183,R,ugm-3,41.80242,R,ugm-3,130.95198,R,ugm-3
06-01-2017,22:00,101.87491,R,ugm-3,54.20685,R,ugm-3,210.41287,R,ugm-3
06-01-2017,23:00,103.25062,R,ugm-3,44.42384,R,ugm-3,202.73925,R,ugm-3
06-01-2017,24:00,54.44914,R,ugm-3,33.34057,R,ugm-3,116.82808,R,ugm-3
07-01-2017,01:00,55.36765,R,ugm-3,28.81506,R,ugm-3,113.71094,R,ugm-3
07-01-2017,02:00,20.22123,R,ugm-3,25.51753,R,ugm-3,56.52298,R,ugm-3
07-01-2017,03:00,15.23814,R,ugm-3,20.68986,R,ugm-3,44.05468,R,ugm-3
07-01-2017,04:00,15.16592,R,ugm-3,20.96683,R,ugm-3,44.22092,R,ugm-3
07-01-2017,05:00,11.08557,R,ugm-3,17.47031,R,ugm-3,34.46794,R,ugm-3
07-01-2017,06:00,15.23814,R,ugm-3,22.51854,R,ugm-3,45.88336,R,ugm-3
07-01-2017,07:00,36.75930,R,ugm-3,15.73103,R,ugm-3,72.09451,R,ugm-3
07-01-2017,08:00,88.93729,R,ugm-3,32.64618,R,ugm-3,169.01480,R,ugm-3
07-01-2017,09:00,152.95914,R,ugm-3,36.49915,R,ugm-3,271.03324,R,ugm-3
07-01-2017,10:00,128.40480,R,ugm-3,42.89475,R,ugm-3,239.77935,R,ugm-3
07-01-2017,11:00,198.24025,R,ugm-3,50.52361,R,ugm-3,354.48776,R,ugm-3
07-01-2017,12:00,155.05348,R,ugm-3,61.43854,R,ugm-3,299.18390,R,ugm-3
07-01-2017,13:00,209.97578,R,ugm-3,68.10561,R,ugm-3,390.06399,R,ugm-3
07-01-2017,14:00,180.33002,R,ugm-3,67.45679,R,ugm-3,343.95897,R,ugm-3
07-01-2017,15:00,132.84624,R,ugm-3,71.55002,R,ugm-3,275.24475,R,ugm-3
07-01-2017,16:00,95.65363,R,ugm-3,61.13823,R,ugm-3,207.80508,R,ugm-3
07-01-2017,17:00,18.56020,R,ugm-3,33.05173,R,ugm-3,61.51030,R,ugm-3
07-01-2017,18:00,66.33285,R,ugm-3,49.73939,R,ugm-3,151.44834,R,ugm-3
07-01-2017,19:00,40.76744,R,ugm-3,47.15647,R,ugm-3,109.66567,R,ugm-3
07-01-2017,20:00,103.12826,R,ugm-3,62.31183,R,ugm-3,220.43963,R,ugm-3
07-01-2017,21:00,33.14837,R,ugm-3,46.81389,R,ugm-3,97.64068,R,ugm-3
07-01-2017,22:00,27.37088,R,ugm-3,33.22964,R,ugm-3,75.19773,R,ugm-3
07-01-2017,23:00,18.88518,R,ugm-3,27.95401,R,ugm-3,56.91088,R,ugm-3
07-01-2017,24:00,73.37417,R,ugm-3,37.83456,R,ugm-3,150.34005,R,ugm-3
08-01-2017,01:00,,,,,,,,,
08-01-2017,02:00,5.13380,R,ugm-3,17.60469,R,ugm-3,25.47641,R,ugm-3
08-01-2017,03:00,8.88820,R,ugm-3,20.05792,R,ugm-3,33.68630,R,ugm-3
08-01-2017,04:00,16.51693,R,ugm-3,22.66356,R,ugm-3,47.98917,R,ugm-3
08-01-2017,05:00,4.17421,R,ugm-3,14.36364,R,ugm-3,20.76401,R,ugm-3
08-01-2017,06:00,2.23105,R,ugm-3,9.77751,R,ugm-3,13.19840,R,ugm-3
08-01-2017,07:00,6.44124,R,ugm-3,16.24425,R,ugm-3,26.12069,R,ugm-3
08-01-2017,08:00,9.03214,R,ugm-3,22.32227,R,ugm-3,36.17135,R,ugm-3
08-01-2017,09:00,15.61732,R,ugm-3,27.74292,R,ugm-3,51.68914,R,ugm-3
08-01-2017,10:00,11.62303,R,ugm-3,24.75554,R,ugm-3,42.57727,R,ugm-3
08-01-2017,11:00,16.30103,R,ugm-3,28.51695,R,ugm-3,53.51151,R,ugm-3
08-01-2017,12:00,27.74413,R,ugm-3,29.36051,R,ugm-3,71.90092,R,ugm-3
08-01-2017,13:00,299.28396,R,ugm-3,138.51147,R,ugm-3,597.40715,R,ugm-3
08-01-2017,14:00,25.08127,R,ugm-3,36.97781,R,ugm-3,75.43522,R,ugm-3
08-01-2017,15:00,24.50552,R,ugm-3,41.00835,R,ugm-3,78.58295,R,ugm-3
08-01-2017,16:00,11.69500,R,ugm-3,27.46159,R,ugm-3,45.39367,R,ugm-3
08-01-2017,17:00,9.78781,R,ugm-3,26.85160,R,ugm-3,41.85937,R,ugm-3
08-01-2017,18:00,9.06812,R,ugm-3,21.82531,R,ugm-3,35.72956,R,ugm-3
08-01-2017,19:00,7.26889,R,ugm-3,22.76171,R,ugm-3,33.90719,R,ugm-3
08-01-2017,20:00,14.24990,R,ugm-3,21.11429,R,ugm-3,42.96383,R,ugm-3
08-01-2017,21:00,4.24618,R,ugm-3,12.98315,R,ugm-3,19.49387,R,ugm-3
08-01-2017,22:00,2.51892,R,ugm-3,8.94954,R,ugm-3,12.81184,R,ugm-3
08-01-2017,23:00,1.51135,R,ugm-3,5.41391,R,ugm-3,7.73128,R,ugm-3
08-01-2017,24:00,0.64772,R,ugm-3,3.31427,R,ugm-3,4.30743,R,ugm-3
09-01-2017,01:00,0.47855,R,ugm-3,2.05454,R,ugm-3,2.78830,R,ugm-3
09-01-2017,02:00,0.28713,R,ugm-3,1.98116,R,ugm-3,2.42142,R,ugm-3
09-01-2017,03:00,0.53837,R,ugm-3,2.14626,R,ugm-3,2.97174,R,ugm-3
09-01-2017,04:00,0.35891,R,ugm-3,2.64155,R,ugm-3,3.19187,R,ugm-3
09-01-2017,05:00,0.89728,R,ugm-3,2.91671,R,ugm-3,4.29251,R,ugm-3
09-01-2017,06:00,4.73762,R,ugm-3,3.52206,R,ugm-3,10.78631,R,ugm-3
09-01-2017,07:00,4.52227,R,ugm-3,6.43877,R,ugm-3,13.37282,R,ugm-3
09-01-2017,08:00,12.05940,R,ugm-3,21.73771,R,ugm-3,40.22853,R,ugm-3
09-01-2017,09:00,41.27472,R,ugm-3,45.29149,R,ugm-3,108.57851,R,ugm-3
09-01-2017,10:00,55.12866,R,ugm-3,41.93453,R,ugm-3,126.46397,R,ugm-3
09-01-2017,11:00,49.27842,R,ugm-3,54.70199,R,ugm-3,130.26119,R,ugm-3
09-01-2017,12:00,52.72396,R,ugm-3,38.52253,R,ugm-3,119.36482,R,ugm-3
09-01-2017,13:00,38.43932,R,ugm-3,26.52551,R,ugm-3,85.46499,R,ugm-3
09-01-2017,14:00,49.49377,R,ugm-3,46.11697,R,ugm-3,122.00636,R,ugm-3
09-01-2017,15:00,46.04823,R,ugm-3,30.21267,R,ugm-3,100.81897,R,ugm-3
09-01-2017,16:00,51.93436,R,ugm-3,38.63260,R,ugm-3,118.26417,R,ugm-3
09-01-2017,17:00,45.11506,R,ugm-3,41.54930,R,ugm-3,110.72476,R,ugm-3
09-01-2017,18:00,40.09031,R,ugm-3,41.16408,R,ugm-3,102.63503,R,ugm-3
09-01-2017,19:00,37.25492,R,ugm-3,23.33365,R,ugm-3,80.45706,R,ugm-3
09-01-2017,20:00,15.18192,R,ugm-3,17.33514,R,ugm-3,40.61375,R,ugm-3
09-01-2017,21:00,5.09653,R,ugm-3,11.22657,R,ugm-3,19.04114,R,ugm-3
09-01-2017,22:00,5.85024,R,ugm-3,10.89637,R,ugm-3,19.86662,R,ugm-3
09-01-2017,23:00,4.16336,R,ugm-3,7.63113,R,ugm-3,14.01486,R,ugm-3
09-01-2017,24:00,10.62375,R,ugm-3,15.57411,R,ugm-3,31.86364,R,ugm-3
10-01-2017,01:00,0.47688,R,ugm-3,3.72918,R,ugm-3,4.46040,R,ugm-3
10-01-2017,02:00,0.38151,R,ugm-3,1.16994,R,ugm-3,1.75491,R,ugm-3
10-01-2017,03:00,0.10730,R,ugm-3,0.32905,R,ugm-3,0.49357,R,ugm-3
10-01-2017,04:00,0.50073,R,ugm-3,1.64523,R,ugm-3,2.41300,R,ugm-3
10-01-2017,05:00,0.50073,R,ugm-3,1.86459,R,ugm-3,2.63237,R,ugm-3
10-01-2017,06:00,1.89562,R,ugm-3,3.01625,R,ugm-3,5.92282,R,ugm-3
10-01-2017,07:00,13.77004,R,ugm-3,9.70685,R,ugm-3,30.82061,R,ugm-3
10-01-2017,08:00,22.64009,R,ugm-3,26.59786,R,ugm-3,61.31217,R,ugm-3
10-01-2017,09:00,82.90635,R,ugm-3,32.84972,R,ugm-3,159.97102,R,ugm-3
10-01-2017,10:00,70.53120,R,ugm-3,41.02102,R,ugm-3,149.16735,R,ugm-3
10-01-2017,11:00,288.09777,R,ugm-3,25.39135,R,ugm-3,467.13511,R,ugm-3
10-01-2017,12:00,537.74673,R,ugm-3,79.02579,R,ugm-3,903.55929,R,ugm-3
10-01-2017,13:00,71.56842,R,ugm-3,38.77254,R,ugm-3,148.50926,R,ugm-3
10-01-2017,14:00,41.27434,R,ugm-3,43.48886,R,ugm-3,106.77531,R,ugm-3
10-01-2017,15:00,38.30574,R,ugm-3,36.24986,R,ugm-3,94.98450,R,ugm-3
10-01-2017,16:00,129.43834,R,ugm-3,37.62088,R,ugm-3,236.09024,R,ugm-3
10-01-2017,17:00,51.36045,R,ugm-3,41.24039,R,ugm-3,119.99197,R,ugm-3
10-01-2017,18:00,85.80342,R,ugm-3,48.47939,R,ugm-3,180.04280,R,ugm-3
10-01-2017,19:00,37.12545,R,ugm-3,28.51729,R,ugm-3,85.44218,R,ugm-3
10-01-2017,20:00,21.20943,R,ugm-3,32.79488,R,ugm-3,65.31556,R,ugm-3
10-01-2017,21:00,21.24520,R,ugm-3,26.26881,R,ugm-3,58.84433,R,ugm-3
10-01-2017,22:00,5.57955,R,ugm-3,12.33921,R,ugm-3,20.89440,R,ugm-3
10-01-2017,23:00,11.91019,R,ugm-3,11.79080,R,ugm-3,30.05283,R,ugm-3
10-01-2017,24:00,1.85985,R,ugm-3,5.75830,R,ugm-3,8.61003,R,ugm-3
11-01-2017,01:00,0.47522,R,ugm-3,2.84178,R,ugm-3,3.57045,R,ugm-3
11-01-2017,02:00,,,,,,,,,
11-01-2017,03:00,0.14257,R,ugm-3,0.43720,R,ugm-3,0.65580,R,ugm-3
11-01-2017,04:00,0.21385,R,ugm-3,0.71045,R,ugm-3,1.03834,R,ugm-3
11-01-2017,05:00,0.24949,R,ugm-3,0.54650,R,ugm-3,0.92905,R,ugm-3
11-01-2017,06:00,1.92465,R,ugm-3,2.73248,R,ugm-3,5.68357,R,ugm-3
11-01-2017,07:00,5.06111,R,ugm-3,4.53592,R,ugm-3,12.29618,R,ugm-3
11-01-2017,08:00,9.01732,R,ugm-3,13.99032,R,ugm-3,27.81669,R,ugm-3
11-01-2017,09:00,39.24140,R,ugm-3,14.91937,R,ugm-3,75.08867,R,ugm-3
11-01-2017,10:00,31.97051,R,ugm-3,21.91453,R,ugm-3,70.93529,R,ugm-3
11-01-2017,11:00,41.02348,R,ugm-3,22.62497,R,ugm-3,85.52676,R,ugm-3
11-01-2017,12:00,33.21797,R,ugm-3,21.80523,R,ugm-3,72.73873,R,ugm-3
11-01-2017,13:00,32.07744,R,ugm-3,21.20408,R,ugm-3,70.38880,R,ugm-3
11-01-2017,14:00,32.14872,R,ugm-3,20.49363,R,ugm-3,69.78765,R,ugm-3
11-01-2017,15:00,32.96848,R,ugm-3,24.92026,R,ugm-3,75.47122,R,ugm-3
11-01-2017,16:00,54.78114,R,ugm-3,29.45618,R,ugm-3,113.45275,R,ugm-3
11-01-2017,17:00,58.87992,R,ugm-3,58.47517,R,ugm-3,148.75645,R,ugm-3
11-01-2017,18:00,47.40333,R,ugm-3,39.83962,R,ugm-3,112.52371,R,ugm-3
11-01-2017,19:00,42.69863,R,ugm-3,33.60956,R,ugm-3,99.07988,R,ugm-3
11-01-2017,20:00,16.71591,R,ugm-3,17.70650,R,ugm-3,43.33720,R,ugm-3
11-01-2017,21:00,20.38699,R,ugm-3,14.09962,R,ugm-3,45.35924,R,ugm-3
11-01-2017,22:00,10.37171,R,ugm-3,7.86956,R,ugm-3,23.77261,R,ugm-3
11-01-2017,23:00,18.10593,R,ugm-3,12.02293,R,ugm-3,39.78497,R,ugm-3
11-01-2017,24:00,23.84423,R,ugm-3,17.05070,R,ugm-3,53.61134,R,ugm-3
12-01-2017,01:00,0.56877,R,ugm-3,1.88955,R,ugm-3,2.76165,R,ugm-3
12-01-2017,02:00,0.28438,R,ugm-3,2.10758,R,ugm-3,2.54363,R,ugm-3
12-01-2017,03:00,0.14219,R,ugm-3,2.88883,R,ugm-3,3.10686,R,ugm-3
12-01-2017,04:00,0.24884,R,ugm-3,3.32488,R,ugm-3,3.70643,R,ugm-3
12-01-2017,05:00,2.09734,R,ugm-3,7.90341,R,ugm-3,11.11928,R,ugm-3
12-01-2017,06:00,1.81295,R,ugm-3,5.94118,R,ugm-3,8.72100,R,ugm-3
12-01-2017,07:00,14.89463,R,ugm-3,17.87805,R,ugm-3,40.71617,R,ugm-3
12-01-2017,08:00,48.09651,R,ugm-3,41.64278,R,ugm-3,115.38973,R,ugm-3
12-01-2017,09:00,86.98608,R,ugm-3,59.13928,R,ugm-3,192.51608,R,ugm-3
12-01-2017,10:00,69.49644,R,ugm-3,51.78094,R,ugm-3,158.34066,R,ugm-3
12-01-2017,11:00,50.54933,R,ugm-3,52.27149,R,ugm-3,129.77938,R,ugm-3
12-01-2017,12:00,99.14351,R,ugm-3,60.44743,R,ugm-3,212.46536,R,ugm-3
12-01-2017,13:00,86.27512,R,ugm-3,45.51272,R,ugm-3,177.79939,R,ugm-3
12-01-2017,14:00,78.20571,R,ugm-3,46.43933,R,ugm-3,166.35308,R,ugm-3
12-01-2017,15:00,80.76517,R,ugm-3,49.27365,R,ugm-3,173.11185,R,ugm-3
12-01-2017,16:00,146.10249,R,ugm-3,60.93799,R,ugm-3,284.95868,R,ugm-3
12-01-2017,17:00,104.26243,R,ugm-3,69.93152,R,ugm-3,229.79835,R,ugm-3
12-01-2017,18:00,114.39363,R,ugm-3,67.69676,R,ugm-3,243.09788,R,ugm-3
12-01-2017,19:00,66.36821,R,ugm-3,49.70970,R,ugm-3,151.47287,R,ugm-3
12-01-2017,20:00,53.71310,R,ugm-3,51.01785,R,ugm-3,133.37679,R,ugm-3
12-01-2017,21:00,33.23743,R,ugm-3,36.35567,R,ugm-3,87.31901,R,ugm-3
12-01-2017,22:00,49.48289,R,ugm-3,25.67244,R,ugm-3,101.54514,R,ugm-3
12-01-2017,23:00,69.06986,R,ugm-3,24.47331,R,ugm-3,130.37895,R,ugm-3
12-01-2017,24:00,12.08634,R,ugm-3,16.35188,R,ugm-3,34.88400,R,ugm-3
13-01-2017,01:00,0.89739,R,ugm-3,3.33132,R,ugm-3,4.70730,R,ugm-3
13-01-2017,02:00,0.14169,R,ugm-3,1.30356,R,ugm-3,1.52082,R,ugm-3
13-01-2017,03:00,0.77931,R,ugm-3,1.68377,R,ugm-3,2.87870,R,ugm-3
13-01-2017,04:00,0.24796,R,ugm-3,1.30356,R,ugm-3,1.68377,R,ugm-3
13-01-2017,05:00,0.17712,R,ugm-3,0.70610,R,ugm-3,0.97767,R,ugm-3
13-01-2017,06:00,6.05739,R,ugm-3,4.67109,R,ugm-3,13.95896,R,ugm-3
13-01-2017,07:00,12.36274,R,ugm-3,7.00664,R,ugm-3,25.96257,R,ugm-3
13-01-2017,08:00,25.11513,R,ugm-3,31.88291,R,ugm-3,70.39224,R,ugm-3
13-01-2017,09:00,47.14844,R,ugm-3,33.67530,R,ugm-3,105.96857,R,ugm-3
13-01-2017,10:00,82.18210,R,ugm-3,53.66322,R,ugm-3,179.67402,R,ugm-3
13-01-2017,11:00,88.98338,R,ugm-3,59.52924,R,ugm-3,195.96852,R,ugm-3
13-01-2017,12:00,51.15127,R,ugm-3,41.17077,R,ugm-3,119.60163,R,ugm-3
13-01-2017,13:00,79.17112,R,ugm-3,54.47795,R,ugm-3,175.87197,R,ugm-3
13-01-2017,14:00,79.25378,R,ugm-3,44.46588,R,ugm-3,165.98664,R,ugm-3
13-01-2017,15:00,59.22779,R,ugm-3,47.52563,R,ugm-3,138.34031,R,ugm-3
13-01-2017,16:00,89.93981,R,ugm-3,55.99877,R,ugm-3,193.90455,R,ugm-3
13-01-2017,17:00,107.26181,R,ugm-3,76.25826,R,ugm-3,240.72408,R,ugm-3
13-01-2017,18:00,131.03086,R,ugm-3,78.05066,R,ugm-3,278.96184,R,ugm-3
13-01-2017,19:00,93.41130,R,ugm-3,72.83642,R,ugm-3,216.06507,R,ugm-3
13-01-2017,20:00,144.84596,R,ugm-3,75.76943,R,ugm-3,297.86346,R,ugm-3
13-01-2017,21:00,65.99365,R,ugm-3,68.65416,R,ugm-3,169.84301,R,ugm-3
13-01-2017,22:00,80.62348,R,ugm-3,24.11586,R,ugm-3,147.73680,R,ugm-3
13-01-2017,23:00,27.66561,R,ugm-3,35.30475,R,ugm-3,77.72477,R,ugm-3
13-01-2017,24:00,27.27596,R,ugm-3,30.03620,R,ugm-3,71.85875,R,ugm-3
14-01-2017,01:00,4.14536,R,ugm-3,13.48925,R,ugm-3,19.84538,R,ugm-3
14-01-2017,02:00,3.58008,R,ugm-3,11.32506,R,ugm-3,16.81445,R,ugm-3
14-01-2017,03:00,2.64973,R,ugm-3,14.82632,R,ugm-3,18.88919,R,ugm-3
14-01-2017,04:00,7.48991,R,ugm-3,22.18060,R,ugm-3,33.66497,R,ugm-3
14-01-2017,05:00,0.24731,R,ugm-3,4.11307,R,ugm-3,4.49227,R,ugm-3
14-01-2017,06:00,8.30250,R,ugm-3,15.84702,R,ugm-3,28.57734,R,ugm-3
14-01-2017,07:00,26.70931,R,ugm-3,46.99739,R,ugm-3,87.95109,R,ugm-3
14-01-2017,08:00,62.28639,R,ugm-3,57.44925,R,ugm-3,152.95372,R,ugm-3
14-01-2017,09:00,97.43951,R,ugm-3,62.65168,R,ugm-3,212.05685,R,ugm-3
14-01-2017,10:00,75.21709,R,ugm-3,55.37505,R,ugm-3,170.70631,R,ugm-3
14-01-2017,11:00,115.06907,R,ugm-3,67.22834,R,ugm-3,243.66512,R,ugm-3
14-01-2017,12:00,147.64312,R,ugm-3,73.08375,R,ugm-3,299.46671,R,ugm-3
14-01-2017,13:00,156.26358,R,ugm-3,86.00766,R,ugm-3,325.60848,R,ugm-3
14-01-2017,14:00,92.56400,R,ugm-3,51.40054,R,ugm-3,193.33004,R,ugm-3
14-01-2017,15:00,61.61512,R,ugm-3,38.34448,R,ugm-3,132.81968,R,ugm-3
14-01-2017,16:00,138.31606,R,ugm-3,55.12729,R,ugm-3,267.20895,R,ugm-3
14-01-2017,17:00,179.19261,R,ugm-3,84.94828,R,ugm-3,359.70644,R,ugm-3
14-01-2017,18:00,279.38784,R,ugm-3,93.09362,R,ugm-3,521.48233,R,ugm-3
14-01-2017,19:00,125.45602,R,ugm-3,67.48491,R,ugm-3,259.84812,R,ugm-3
14-01-2017,20:00,117.86012,R,ugm-3,63.54415,R,ugm-3,244.26048,R,ugm-3
14-01-2017,21:00,90.79752,R,ugm-3,62.22768,R,ugm-3,201.44860,R,ugm-3
14-01-2017,22:00,107.61449,R,ugm-3,57.71265,R,ugm-3,222.71923,R,ugm-3
14-01-2017,23:00,118.63738,R,ugm-3,50.55340,R,ugm-3,232.46151,R,ugm-3
14-01-2017,24:00,86.16932,R,ugm-3,43.18239,R,ugm-3,175.30683,R,ugm-3
15-01-2017,01:00,64.30788,R,ugm-3,45.71933,R,ugm-3,144.32337,R,ugm-3
15-01-2017,02:00,46.98700,R,ugm-3,41.50017,R,ugm-3,113.54589,R,ugm-3
15-01-2017,03:00,33.12795,R,ugm-3,37.70776,R,ugm-3,88.50323,R,ugm-3
15-01-2017,04:00,12.70902,R,ugm-3,27.05686,R,ugm-3,46.54375,R,ugm-3
15-01-2017,05:00,4.50625,R,ugm-3,17.19835,R,ugm-3,24.10783,R,ugm-3
15-01-2017,06:00,3.69653,R,ugm-3,17.14552,R,ugm-3,22.81345,R,ugm-3
15-01-2017,07:00,3.06284,R,ugm-3,11.15987,R,ugm-3,15.85616,R,ugm-3
15-01-2017,08:00,9.89262,R,ugm-3,7.91464,R,ugm-3,23.08311,R,ugm-3
15-01-2017,09:00,2.92202,R,ugm-3,3.93310,R,ugm-3,8.41347,R,ugm-3
15-01-2017,10:00,4.08379,R,ugm-3,7.27534,R,ugm-3,13.53706,R,ugm-3
15-01-2017,11:00,13.80038,R,ugm-3,13.24865,R,ugm-3,34.40894,R,ugm-3
15-01-2017,12:00,25.06599,R,ugm-3,27.04007,R,ugm-3,65.47406,R,ugm-3
15-01-2017,13:00,21.15823,R,ugm-3,29.41841,R,ugm-3,61.86058,R,ugm-3
15-01-2017,14:00,22.63684,R,ugm-3,25.47933,R,ugm-3,60.18867,R,ugm-3
15-01-2017,15:00,20.34852,R,ugm-3,22.67795,R,ugm-3,53.87857,R,ugm-3
15-01-2017,16:00,32.28302,R,ugm-3,32.63925,R,ugm-3,82.13920,R,ugm-3